This is the latest recevied weather packets stored in our database for station/object KF6RAL-6. If no packets are shown the sender has not sent any weather packets the latest 10 day(s).
| Time | Temp. | Humidity | Pressure | Rain* | Wind** | Luminosity | Snow |
|---|---|---|---|---|---|---|---|
| 1788525831 | 25° C | 17% | 1009.5 hPa | 0 mm | - | - | - |
| 1788525410 | 25° C | 17% | 1009.4 hPa | 0 mm | - | - | - |
| 1788524998 | 25.56° C | 16% | 1009.2 hPa | 0 mm | - | - | - |
| 1788524569 | 25.56° C | 16% | 1009 hPa | 0 mm | - | - | - |
| 1788523728 | 25.56° C | 16% | 1009.1 hPa | 0 mm | - | - | - |
| 1788523305 | 26.11° C | 16% | 1008.8 hPa | 0 mm | - | - | - |
| 1788522884 | 26.11° C | 15% | 1009.4 hPa | 0 mm | - | - | - |
| 1788522463 | 26.11° C | 15% | 1009.2 hPa | 0 mm | - | - | - |
| 1788522042 | 26.11° C | 16% | 1009.5 hPa | 0 mm | - | - | - |
| 1788521621 | 26.11° C | 16% | 1009.8 hPa | 0 mm | - | - | - |
| 1788521201 | 25.56° C | 15% | 1009.1 hPa | 0 mm | - | - | - |
| 1788520779 | 26.11° C | 15% | 1009.2 hPa | 0 mm | - | - | - |
| 1788520358 | 26.11° C | 15% | 1009.6 hPa | 0 mm | - | - | - |
| 1788519937 | 26.11° C | 15% | 1009.7 hPa | 0 mm | - | - | - |
| 1788519517 | 26.11° C | 15% | 1009.5 hPa | 0 mm | - | - | - |
| 1788519095 | 26.11° C | 14% | 1008.3 hPa | 0 mm | - | - | - |
| 1788518674 | 26.11° C | 15% | 1008.1 hPa | 0 mm | - | - | - |
| 1788518253 | 26.11° C | 14% | 1008.7 hPa | 0 mm | - | - | - |
| 1788517835 | 26.11° C | 14% | 1008.4 hPa | 0 mm | - | - | - |
| 1788517411 | 26.11° C | 15% | 1007.9 hPa | 0 mm | - | - | - |
| 1788516991 | 26.11° C | 14% | 1008.4 hPa | 0 mm | - | - | - |
| 1788516572 | 26.11° C | 16% | 1008.1 hPa | 0 mm | - | - | - |
| 1788516148 | 26.67° C | 15% | 1008.9 hPa | 0 mm | - | - | - |
| 1788515728 | 26.11° C | 15% | 1007.7 hPa | 0 mm | - | - | - |
| 1788515307 | 26.11° C | 15% | 1008 hPa | 0 mm | - | - | - |
* Rain latest hour (hover to see other rain measurements)
** Current wind speed in m/s (hover to see current wind gust speed)